BEIJING 1 1 28890U 05043A 26248.61913914 .00000155 00000+0 39423-4 0 9990 2 28890 98.3025 22.3301 0015390 34.2923 325.9269 14.63572803112412 HUANJING 1A (HJ-1A) 1 33320U 08041A 26248.60263271 .00000577 00000+0 75162-4 0 9996 2 33320 97.6773 231.3733 0017416 232.1984 127.7655 14.84147076970339 HUANJING 1B (HJ-1B) 1 33321U 08041B 26248.60889740 .00000627 00000+0 81942-4 0 9991 2 33321 97.6606 234.3037 0034651 280.4855 79.2456 14.83450223970338 YAOGAN-4 1 33446U 08061A 26248.37680091 .00000465 00000+0 63281-4 0 9999 2 33446 97.9319 181.3048 0014503 163.7424 196.4258 14.83328558957558 DEIMOS-1 1 35681U 09041A 26248.55936565 .00000350 00000+0 58740-4 0 9998 2 35681 97.7514 42.3567 0000685 24.5791 335.5452 14.75307505918734 UK-DMC 2 1 35683U 09041C 26248.62174598 .00000631 00000+0 98528-4 0 9998 2 35683 97.8944 21.6758 0001429 68.3360 291.8002 14.76131959918432 DMC3-FM1 1 40715U 15032A 26248.61688365 -.00000282 00000+0 -26491-4 0 9992 2 40715 97.6342 110.5950 0006324 136.0753 224.0966 14.85808722601855 DMC3-FM2 1 40716U 15032B 26248.57121574 .00000187 00000+0 27362-4 0 9992 2 40716 97.6392 112.1786 0006693 141.8344 218.3347 14.85817498601843 DMC3-FM3 1 40717U 15032C 26248.59514384 .00000759 00000+0 93186-4 0 9992 2 40717 97.6442 114.0043 0005987 139.6128 220.5533 14.85808535601852